This is the latest recevied weather packets stored in our database for station/object CE3TDM-12. If no packets are shown the sender has not sent any weather packets the latest 10 day(s).
| Time | Temp. | Humidity | Pressure | Rain* | Wind** | Luminosity | Snow |
|---|---|---|---|---|---|---|---|
| 1777938292 | 15.56° C | 32% | 778.8 hPa | - | - | - | - |
| 1777937992 | 15.56° C | 32% | 778.7 hPa | - | - | - | - |
| 1777937690 | 15.56° C | 32% | 778.6 hPa | - | - | - | - |
| 1777937389 | 15.56° C | 32% | 778.6 hPa | - | - | - | - |
| 1777937089 | 15.56° C | 32% | 778.6 hPa | - | - | - | - |
| 1777936788 | 15.56° C | 32% | 778.9 hPa | - | - | - | - |
| 1777936487 | 15.56° C | 32% | 778.7 hPa | - | - | - | - |
| 1777936187 | 15.56° C | 32% | 778.7 hPa | - | - | - | - |
| 1777935887 | 16.11° C | 32% | 778.6 hPa | - | - | - | - |
| 1777935586 | 16.11° C | 32% | 778.6 hPa | - | - | - | - |
| 1777935286 | 16.11° C | 32% | 778.4 hPa | - | - | - | - |
| 1777934985 | 16.11° C | 32% | 778.3 hPa | - | - | - | - |
| 1777934682 | 16.11° C | 32% | 778.3 hPa | - | - | - | - |
| 1777934381 | 16.11° C | 32% | 778.3 hPa | - | - | - | - |
| 1777934080 | 16.67° C | 32% | 778.2 hPa | - | - | - | - |
| 1777933780 | 16.67° C | 32% | 778.2 hPa | - | - | - | - |
| 1777933480 | 16.67° C | 32% | 777.9 hPa | - | - | - | - |
| 1777933179 | 16.67° C | 32% | 777.8 hPa | - | - | - | - |
| 1777932879 | 17.22° C | 32% | 778 hPa | - | - | - | - |
| 1777932576 | 17.22° C | 32% | 777.9 hPa | - | - | - | - |
| 1777932276 | 17.78° C | 31% | 777.8 hPa | - | - | - | - |
| 1777931975 | 18.33° C | 31% | 777.8 hPa | - | - | - | - |
| 1777931675 | 19.44° C | 30% | 777.7 hPa | - | - | - | - |
| 1777931374 | 20° C | 30% | 777.8 hPa | - | - | - | - |
| 1777931074 | 20° C | 30% | 777.7 hPa | - | - | - | - |
* Rain since midnight (hover to see other rain measurements)
** Current wind speed in m/s (hover to see current wind gust speed)